This is the latest recevied weather packets stored in our database for station/object OE3BCB-14. If no packets are shown the sender has not sent any weather packets the latest 10 day(s).
| Time | Temp. | Humidity | Pressure | Rain* | Wind** | Luminosity | Snow |
|---|---|---|---|---|---|---|---|
| 1777705418 | 18.33° C | 47% | 1027.5 hPa | - | - | 24 W/m² | - |
| 1777704814 | 18.33° C | 48% | 1027.5 hPa | - | - | 24 W/m² | - |
| 1777704511 | 18.33° C | 48% | 1027.5 hPa | - | - | 24 W/m² | - |
| 1777704209 | 18.89° C | 49% | 1027.5 hPa | - | - | 24 W/m² | - |
| 1777703906 | 18.89° C | 49% | 1027.5 hPa | - | - | 25 W/m² | - |
| 1777703301 | 18.89° C | 50% | 1027.5 hPa | - | - | 143 W/m² | - |
| 1777702999 | 18.33° C | 50% | 1027.6 hPa | - | - | 144 W/m² | - |
| 1777702697 | 18.33° C | 51% | 1027.5 hPa | - | - | 143 W/m² | - |
| 1777702394 | 17.78° C | 51% | 1027.5 hPa | - | - | 140 W/m² | - |
| 1777702092 | 17.22° C | 51% | 1027.6 hPa | - | - | 135 W/m² | - |
| 1777701789 | 16.67° C | 51% | 1027.5 hPa | - | - | 131 W/m² | - |
| 1777701487 | 16.67° C | 52% | 1027.5 hPa | - | - | 127 W/m² | - |
| 1777701185 | 16.11° C | 52% | 1027.5 hPa | - | - | 124 W/m² | - |
| 1777700882 | 15.56° C | 52% | 1027.6 hPa | - | - | 121 W/m² | - |
| 1777700580 | 15° C | 52% | 1027.6 hPa | - | - | 116 W/m² | - |
| 1777699975 | 15° C | 53% | 1027.6 hPa | - | - | 40 W/m² | - |
| 1777699673 | 14.44° C | 53% | 1027.6 hPa | - | - | 29 W/m² | - |
| 1777699370 | 13.33° C | 53% | 1027.6 hPa | - | - | 31 W/m² | - |
| 1777699068 | 13.33° C | 53% | 1027.6 hPa | - | - | 76 W/m² | - |
| 1777698765 | 12.78° C | 53% | 1027.7 hPa | - | - | 86 W/m² | - |
| 1777698463 | 12.22° C | 54% | 1027.7 hPa | - | - | 80 W/m² | - |
| 1777698160 | 12.22° C | 54% | 1027.6 hPa | - | - | 72 W/m² | - |
| 1777697858 | 11.67° C | 54% | 1027.6 hPa | - | - | 64 W/m² | - |
| 1777697556 | 11.11° C | 54% | 1027.5 hPa | - | - | 57 W/m² | - |
| 1777697253 | 11.11° C | 54% | 1027.5 hPa | - | - | 49 W/m² | - |
* Rain since midnight (hover to see other rain measurements)
** Current wind speed in m/s (hover to see current wind gust speed)